TimeAKST,TemperatureF,Dew PointF,Humidity,Sea Level PressureIn,VisibilityMPH,Wind Direction,Wind SpeedMPH,Gust SpeedMPH,PrecipitationIn,Events,Conditions,WindDirDegrees,DateUTC
12:10 AM,35.6,30.2,81,28.95,8.0,ENE,11.5,-,0.00,Snow,Light Snow,70,2013-01-07 09:10:00
12:39 AM,35.6,30.2,81,28.95,1.8,East,13.8,23.0,0.00,Snow,Light Snow,80,2013-01-07 09:39:00
12:53 AM,34.0,30.9,89,28.95,3.0,East,13.8,-,0.03,Snow,Light Snow,80,2013-01-07 09:53:00
1:15 AM,33.8,30.2,87,28.95,1.8,ENE,13.8,-,0.00,Snow,Light Snow,70,2013-01-07 10:15:00
1:23 AM,33.8,30.2,87,28.95,2.0,ENE,12.7,-,0.01,Snow,Light Snow,60,2013-01-07 10:23:00
1:33 AM,33.8,30.2,87,28.94,4.0,NE,10.4,-,0.02,Snow,Light Snow,50,2013-01-07 10:33:00
1:53 AM,35.1,30.9,85,28.95,9.0,ENE,12.7,-,0.03,,Mostly Cloudy,60,2013-01-07 10:53:00
2:04 AM,35.6,30.2,81,28.93,10.0,NE,10.4,-,N/A,,Mostly Cloudy,50,2013-01-07 11:04:00
3:16 AM,33.8,30.2,87,28.94,1.8,NE,12.7,-,0.03,Snow,Light Snow,50,2013-01-07 12:16:00
3:26 AM,33.8,30.2,87,28.93,2.0,NE,8.1,-,0.04,Snow,Light Snow,50,2013-01-07 12:26:00
3:35 AM,33.8,30.2,87,28.92,8.0,NE,10.4,-,0.04,Snow,Light Snow,50,2013-01-07 12:35:00
3:53 AM,35.1,30.9,85,28.93,10.0,ENE,11.5,-,0.04,,Mostly Cloudy,60,2013-01-07 12:53:00
4:31 AM,35.6,30.2,81,28.93,10.0,NE,9.2,-,0.00,Snow,Light Snow,50,2013-01-07 13:31:00
4:53 AM,35.1,30.9,85,28.94,5.0,NE,12.7,-,0.02,Snow,Light Snow,50,2013-01-07 13:53:00
5:03 AM,35.6,30.2,81,28.93,8.0,NE,11.5,19.6,0.01,Snow,Light Snow,40,2013-01-07 14:03:00
5:17 AM,35.6,30.2,81,28.92,10.0,NE,11.5,-,0.01,,Overcast,50,2013-01-07 14:17:00
5:42 AM,35.6,30.2,81,28.92,7.0,NE,15.0,-,0.01,Snow,Light Snow,50,2013-01-07 14:42:00
5:53 AM,35.1,30.9,85,28.93,9.0,NE,13.8,-,0.02,,Overcast,50,2013-01-07 14:53:00
6:25 AM,35.6,32.0,87,28.94,8.0,NE,13.8,23.0,0.01,Snow,Light Snow,50,2013-01-07 15:25:00
6:40 AM,35.6,32.0,87,28.94,10.0,ENE,11.5,-,0.01,,Overcast,60,2013-01-07 15:40:00
6:53 AM,35.1,32.0,89,28.94,10.0,ENE,9.2,-,0.01,,Overcast,60,2013-01-07 15:53:00
7:53 AM,36.0,30.9,82,28.96,10.0,NE,13.8,-,N/A,,Mostly Cloudy,50,2013-01-07 16:53:00
8:53 AM,35.1,32.0,89,28.99,10.0,ENE,11.5,-,N/A,,Mostly Cloudy,70,2013-01-07 17:53:00
9:53 AM,35.1,32.0,89,29.01,10.0,NE,8.1,-,N/A,,Partly Cloudy,50,2013-01-07 18:53:00
10:53 AM,35.1,30.0,82,29.04,10.0,Calm,Calm,-,N/A,,Overcast,0,2013-01-07 19:53:00
11:53 AM,37.0,28.9,73,29.06,10.0,NNE,5.8,-,N/A,,Mostly Cloudy,20,2013-01-07 20:53:00
12:53 PM,37.0,30.0,76,29.08,10.0,East,3.5,-,N/A,,Mostly Cloudy,90,2013-01-07 21:53:00
1:53 PM,37.0,30.0,76,29.10,10.0,NE,6.9,-,N/A,,Mostly Cloudy,50,2013-01-07 22:53:00
2:53 PM,36.0,30.0,79,29.13,10.0,North,3.5,-,N/A,,Mostly Cloudy,10,2013-01-07 23:53:00
3:53 PM,36.0,30.0,79,29.15,10.0,Calm,Calm,-,N/A,,Scattered Clouds,0,2013-01-08 00:53:00
4:53 PM,32.0,28.9,88,29.17,10.0,Calm,Calm,-,N/A,,Partly Cloudy,0,2013-01-08 01:53:00
5:53 PM,35.1,26.1,70,29.19,10.0,Calm,Calm,-,N/A,,Clear,0,2013-01-08 02:53:00
6:53 PM,32.0,25.0,75,29.22,10.0,Calm,Calm,-,N/A,,Clear,0,2013-01-08 03:53:00
7:53 PM,28.9,25.0,85,29.24,10.0,ENE,4.6,-,N/A,,Clear,70,2013-01-08 04:53:00
8:53 PM,28.9,25.0,85,29.27,10.0,NE,3.5,-,N/A,,Clear,40,2013-01-08 05:53:00
9:53 PM,28.9,25.0,85,29.30,10.0,NE,5.8,-,N/A,,Mostly Cloudy,40,2013-01-08 06:53:00
10:53 PM,32.0,28.0,85,29.33,10.0,Calm,Calm,-,N/A,,Overcast,0,2013-01-08 07:53:00
11:53 PM,32.0,27.0,82,29.36,10.0,NNE,3.5,-,N/A,,Overcast,30,2013-01-08 08:53:00